Location: Ben Robins Landing
(38.6582°N, 75.1566°W)
Time: 13:54:58
(UTC+00:00)

Daily predictions for brighter satellites

Satellite Brightness Start Highest point End
(mag) Time Altitude Azimuth Time Altitude Azimuth Time Altitude Azimuth
Cosmos 2322 Rocket 3.7 23:33:16 10° SW 23:38:37 42° WNW 23:44:01 10° N
Cosmos 2237 Rocket 3.8 23:37:27 10° ESE 23:39:12 11° E 23:40:58 10° ENE
Cosmos 1937 Rocket 3.8 23:35:24 10° N 23:40:32 49° ENE 23:45:39 10° SE
Cosmos 372 Rocket 4.1 23:35:58 10° NNW 23:41:07 62° ENE 23:46:15 10° SSE
SJ-6B 3.7 23:38:19 10° SE 23:41:21 25° ENE 23:44:21 10° NNE
Cosmos 841 Rocket 3.6 23:37:04 10° SSW 23:42:16 88° WNW 23:47:28 10° NNE
ATLAS CENTAUR R/B 3.0 23:40:08 10° NW 23:45:14 83° NE 23:53:17 10° SE
Cosmos 2219 Rocket 2.3 23:41:49 10° SSW 23:47:30 86° WNW 23:53:12 10° NNE
ACS3 Solar Sail 3.5 23:44:56 10° E 23:48:28 16° ENE 23:52:00 10° NNE
Cosmos 44 Rocket 4.1 23:46:21 10° NNW 23:50:36 32° NE 23:54:46 10° ESE
Cosmos 1725 Rocket 4.2 23:44:26 10° S 23:50:36 82° W 23:56:49 10° N
Cosmos 1743 2.7 23:48:09 10° S 23:51:36 48° E 23:55:03 10° NNE
Iridium 4 Rocket 3.7 23:48:03 10° NNE 23:51:48 32° E 23:55:33 10° SSE
Cosmos 1818 3.6 23:47:47 10° SSW 23:53:13 88° ESE 23:58:43 10° NNE
Cosmos 2333 Rocket 3.7 23:47:47 10° SW 23:53:15 43° WNW 23:58:44 10° N
Meteor PRIRODA 4.1 23:50:57 10° SE 23:53:56 32° ENE 23:56:56 10° N
Intercosmos 24 4.1 23:51:04 10° N 23:54:42 76° W 23:59:14 10° S
